Year,Month,Day,Hour,Minute,Value (Times are PST for windgust in km/hr)
2018,12,23,00,00,16.10
2018,12,23,00,01,16.10
2018,12,23,00,02,22.50
2018,12,23,00,03,11.30
2018,12,23,00,04,19.30
2018,12,23,00,05,14.50
2018,12,23,00,06,6.40
2018,12,23,00,07,9.60
2018,12,23,00,08,4.80
2018,12,23,00,09,6.40
2018,12,23,00,11,11.30
2018,12,23,00,12,8.10
2018,12,23,00,13,6.40
2018,12,23,00,14,8.10
2018,12,23,00,19,6.40
2018,12,23,00,20,6.40
2018,12,23,00,21,8.10
2018,12,23,00,22,17.70
2018,12,23,00,23,9.60
2018,12,23,00,24,14.50
2018,12,23,00,25,19.30
2018,12,23,00,26,20.90
2018,12,23,00,27,16.10
2018,12,23,00,28,16.10
2018,12,23,00,29,14.50
2018,12,23,00,30,14.50
2018,12,23,00,31,25.70
2018,12,23,00,32,17.70
2018,12,23,00,33,11.30
2018,12,23,00,34,9.60
2018,12,23,00,35,14.50
2018,12,23,00,36,20.90
2018,12,23,00,37,19.30
2018,12,23,00,38,24.20
2018,12,23,00,39,9.60
2018,12,23,00,40,11.30
2018,12,23,00,41,20.90
2018,12,23,00,42,17.70
2018,12,23,00,43,17.70
2018,12,23,00,44,9.60
2018,12,23,00,45,16.10
2018,12,23,00,46,20.90
2018,12,23,00,47,20.90
2018,12,23,00,48,20.90
2018,12,23,00,49,22.50
2018,12,23,00,50,22.50
2018,12,23,00,51,17.70
2018,12,23,00,52,19.30
2018,12,23,00,53,19.30
2018,12,23,00,54,20.90
2018,12,23,00,55,25.70
2018,12,23,00,56,20.90
2018,12,23,00,57,20.90
2018,12,23,00,58,20.90
2018,12,23,00,59,24.20
2018,12,23,01,00,24.20
2018,12,23,01,01,20.90
2018,12,23,01,02,14.50
2018,12,23,01,03,25.70
2018,12,23,01,04,17.70
2018,12,23,01,05,14.50
2018,12,23,01,06,19.30
2018,12,23,01,07,19.30
2018,12,23,01,08,9.60
2018,12,23,01,09,16.10
2018,12,23,01,10,20.90
2018,12,23,01,11,9.60
2018,12,23,01,12,14.50
2018,12,23,01,13,24.20
2018,12,23,01,14,9.60
2018,12,23,01,15,11.30
2018,12,23,01,16,17.70
2018,12,23,01,17,12.90
2018,12,23,01,18,14.50
2018,12,23,01,19,16.10
2018,12,23,01,20,8.10
2018,12,23,01,21,9.60
2018,12,23,01,22,9.60
2018,12,23,01,23,8.10
2018,12,23,01,24,4.80
2018,12,23,01,26,6.40
2018,12,23,01,27,8.10
2018,12,23,01,28,9.60
2018,12,23,01,29,19.30
2018,12,23,01,33,3.20
2018,12,23,01,34,11.30
2018,12,23,01,35,14.50
2018,12,23,01,36,14.50
2018,12,23,01,37,8.10
2018,12,23,01,39,17.70
2018,12,23,01,40,8.10
2018,12,23,01,41,6.40
2018,12,23,01,42,6.40
2018,12,23,01,44,9.60
2018,12,23,01,45,8.10
2018,12,23,01,46,11.30
2018,12,23,01,47,14.50
2018,12,23,01,48,8.10
2018,12,23,01,49,16.10
2018,12,23,01,50,17.70
2018,12,23,01,51,16.10
2018,12,23,01,52,16.10
2018,12,23,01,53,19.30
2018,12,23,01,54,14.50
2018,12,23,01,55,8.10
2018,12,23,01,56,6.40
2018,12,23,01,57,9.60
2018,12,23,01,58,14.50
2018,12,23,01,59,16.10
2018,12,23,02,00,8.10
2018,12,23,02,01,8.10
2018,12,23,02,02,14.50
2018,12,23,02,03,11.30
2018,12,23,02,04,11.30
2018,12,23,02,05,4.80
2018,12,23,02,07,9.60
2018,12,23,02,08,11.30
2018,12,23,02,09,8.10
2018,12,23,02,10,11.30
2018,12,23,02,11,11.30
2018,12,23,02,12,9.60
2018,12,23,02,13,17.70
2018,12,23,02,14,16.10
2018,12,23,02,15,16.10
2018,12,23,02,16,14.50
2018,12,23,02,17,14.50
2018,12,23,02,18,11.30
2018,12,23,02,19,14.50
2018,12,23,02,20,9.60
2018,12,23,02,21,17.70
2018,12,23,02,22,14.50
2018,12,23,02,23,16.10
2018,12,23,02,24,17.70
2018,12,23,02,25,11.30
2018,12,23,02,26,11.30
2018,12,23,02,27,16.10
2018,12,23,02,28,17.70
2018,12,23,02,29,19.30
2018,12,23,02,30,9.60
2018,12,23,02,31,19.30
2018,12,23,02,32,16.10
2018,12,23,02,33,17.70
2018,12,23,02,34,11.30
2018,12,23,02,35,11.30
2018,12,23,02,36,14.50
2018,12,23,02,37,14.50
2018,12,23,02,38,14.50
2018,12,23,02,39,16.10
2018,12,23,02,40,11.30
2018,12,23,02,41,11.30
2018,12,23,02,42,9.60
2018,12,23,02,43,4.80
2018,12,23,02,44,9.60
2018,12,23,02,45,6.40
2018,12,23,02,47,6.40
2018,12,23,02,48,6.40
2018,12,23,02,50,9.60
2018,12,23,02,51,12.90
2018,12,23,02,52,8.10
2018,12,23,02,53,9.60
2018,12,23,02,54,8.10
2018,12,23,02,55,8.10
2018,12,23,02,56,8.10
2018,12,23,02,57,11.30
2018,12,23,02,58,16.10
2018,12,23,02,59,8.10
2018,12,23,03,00,11.30
2018,12,23,03,01,11.30
2018,12,23,03,02,8.10
2018,12,23,03,03,6.40
2018,12,23,03,04,8.10
2018,12,23,03,05,11.30
2018,12,23,03,06,11.30
2018,12,23,03,08,14.50
2018,12,23,03,09,3.20
2018,12,23,03,10,9.60
2018,12,23,03,11,11.30
2018,12,23,03,12,11.30
2018,12,23,03,13,8.10
2018,12,23,03,14,16.10
2018,12,23,03,15,19.30
2018,12,23,03,16,24.20
2018,12,23,03,17,20.90
2018,12,23,03,18,16.10
2018,12,23,03,19,17.70
2018,12,23,03,20,17.70
2018,12,23,03,21,16.10
2018,12,23,03,22,17.70
2018,12,23,03,23,9.60
2018,12,23,03,24,9.60
2018,12,23,03,25,9.60
2018,12,23,03,26,9.60
2018,12,23,03,27,17.70
2018,12,23,03,28,11.30
2018,12,23,03,29,16.10
2018,12,23,03,30,17.70
2018,12,23,03,31,16.10
2018,12,23,03,32,20.90
2018,12,23,03,33,9.60
2018,12,23,03,34,6.40
2018,12,23,03,35,6.40
2018,12,23,03,36,11.30
2018,12,23,03,37,11.30
2018,12,23,03,38,17.70
2018,12,23,03,39,9.60
2018,12,23,03,40,9.60
2018,12,23,03,41,11.30
2018,12,23,03,42,6.40
2018,12,23,03,43,4.80
2018,12,23,03,44,11.30
2018,12,23,03,45,8.10
2018,12,23,03,46,14.50
2018,12,23,03,47,8.10
2018,12,23,03,48,4.80
2018,12,23,03,49,11.30
2018,12,23,03,50,12.90
2018,12,23,03,51,14.50
2018,12,23,03,52,9.60
2018,12,23,03,53,4.80
2018,12,23,03,54,11.30
2018,12,23,03,55,9.60
2018,12,23,03,56,8.10
2018,12,23,03,57,6.40
2018,12,23,04,02,11.30
2018,12,23,04,04,3.20
2018,12,23,04,14,4.80
2018,12,23,04,17,1.60
2018,12,23,04,18,9.60
2018,12,23,04,19,8.10
2018,12,23,04,20,9.60
2018,12,23,04,21,8.10
2018,12,23,04,22,3.20
2018,12,23,04,24,1.60
2018,12,23,04,25,6.40
2018,12,23,04,26,6.40
2018,12,23,04,29,3.20
2018,12,23,04,31,6.40
2018,12,23,05,51,12.90
2018,12,23,05,52,11.30
2018,12,23,05,53,8.10
2018,12,23,05,54,4.80
2018,12,23,06,05,6.40
2018,12,23,06,06,6.40
2018,12,23,06,12,6.40
2018,12,23,06,13,1.60
2018,12,23,06,45,11.30
2018,12,23,06,46,8.10
2018,12,23,06,47,9.60
2018,12,23,06,48,9.60
2018,12,23,06,49,8.10
2018,12,23,06,50,8.10
2018,12,23,06,51,4.80
2018,12,23,07,49,8.10
2018,12,23,07,50,6.40
2018,12,23,08,08,6.40
2018,12,23,08,09,9.60
2018,12,23,08,10,6.40
2018,12,23,09,10,8.10
2018,12,23,09,11,8.10
2018,12,23,09,12,6.40
2018,12,23,09,13,4.80
2018,12,23,09,15,6.40
2018,12,23,09,16,9.60
2018,12,23,09,17,8.10
2018,12,23,09,18,11.30
2018,12,23,09,19,9.60
2018,12,23,09,20,1.60
2018,12,23,11,21,3.20
2018,12,23,12,09,4.80
2018,12,23,12,10,3.20
2018,12,23,12,41,4.80
2018,12,23,12,42,1.60
2018,12,23,12,45,8.10
2018,12,23,12,46,6.40
2018,12,23,12,47,3.20
2018,12,23,12,50,11.30
2018,12,23,12,51,8.10
2018,12,23,12,52,4.80
2018,12,23,12,53,4.80
2018,12,23,12,54,6.40
2018,12,23,13,13,4.80
2018,12,23,14,10,4.80
2018,12,23,14,20,9.60
2018,12,23,14,21,3.20
2018,12,23,14,22,6.40
2018,12,23,14,23,8.10
2018,12,23,14,56,6.40
2018,12,23,14,57,6.40
2018,12,23,14,58,6.40
2018,12,23,15,08,4.80
2018,12,23,15,15,6.40
2018,12,23,15,16,6.40
2018,12,23,15,19,6.40
2018,12,23,15,20,9.60
2018,12,23,15,21,6.40
2018,12,23,15,22,6.40
2018,12,23,15,23,14.50
2018,12,23,15,24,8.10
2018,12,23,15,25,9.60
2018,12,23,15,26,8.10
2018,12,23,15,27,8.10
2018,12,23,15,37,1.60
2018,12,23,15,53,8.10
2018,12,23,15,54,4.80
2018,12,23,15,55,6.40
2018,12,23,15,56,4.80
2018,12,23,15,57,6.40
2018,12,23,15,58,9.60
2018,12,23,15,59,9.60
2018,12,23,16,00,12.90
2018,12,23,16,01,11.30
2018,12,23,16,02,11.30
2018,12,23,16,03,16.10
2018,12,23,16,04,11.30
2018,12,23,16,05,6.40
2018,12,23,16,06,9.60
2018,12,23,16,07,11.30
2018,12,23,16,08,11.30
2018,12,23,16,09,11.30
2018,12,23,16,10,9.60
2018,12,23,16,15,8.10
2018,12,23,16,16,8.10
2018,12,23,16,17,8.10
2018,12,23,16,18,8.10
2018,12,23,16,19,4.80
2018,12,23,16,20,8.10
2018,12,23,16,21,8.10
2018,12,23,16,22,8.10
2018,12,23,16,23,6.40
2018,12,23,16,33,3.20
2018,12,23,16,36,6.40
2018,12,23,16,37,3.20
2018,12,23,17,40,8.10
2018,12,23,17,41,6.40
2018,12,23,19,38,8.10
2018,12,23,19,39,6.40
2018,12,23,19,40,6.40
2018,12,23,19,41,4.80
2018,12,23,20,09,8.10
2018,12,23,20,10,8.10
2018,12,23,20,11,8.10
2018,12,23,20,12,8.10
2018,12,23,20,13,6.40
2018,12,23,20,14,4.80
2018,12,23,20,15,3.20
2018,12,23,22,03,6.40
2018,12,23,22,04,8.10
2018,12,23,22,05,6.40
2018,12,23,22,06,6.40
2018,12,23,22,07,1.60
